DW9584 Weather Reports


time (UTC)temp
C
wind
direction
speed
KPH
gust
KPH
rain 1hr
cm
rain 24hr
cm
rain mn
cm
humidity
%
barometer
mb
20260901153004 26 224 0.0 0.0 0.00 0.00 0.00 83 1015.9
20260901151520 27 314 0.0 6.4 0.00 0.00 0.00 83 1016.2
20260901150016 26 245 0.0 4.8 0.00 0.00 0.00 84 1016.3
20260901144515 26 124 0.0 6.4 0.00 0.00 0.00 84 1016.5
20260901143012 26 207 0.0 4.8 0.00 0.00 0.00 87 1016.4
20260901141508 25 154 1.6 6.4 0.00 0.00 0.00 87 1016.3
20260901140007 25 265 0.0 3.2 0.00 0.00 0.00 91 1016.2
20260901134504 25 265 0.0 3.2 0.00 0.00 0.00 91 1016.0
20260901133004 25 265 0.0 3.2 0.00 0.00 0.00 91 1016.1
20260901131524 25 265 0.0 3.2 0.00 0.00 0.00 91 1016.4
20260901130023 24 201 0.0 8.0 0.00 0.00 0.00 93 1016.5
20260901124522 23 283 0.0 4.8 0.00 0.00 0.00 95 1016.5
20260901123016 23 243 0.0 3.2 0.00 0.00 0.00 96 1016.6
20260901121515 22 236 0.0 3.2 0.00 0.00 0.00 96 1016.4
20260901120007 22 237 0.0 4.8 0.00 0.00 0.00 96 1016.6
20260901114506 22 213 0.0 0.0 0.00 0.00 0.00 96 1016.8
20260901113032 21 213 0.0 0.0 0.00 0.00 0.00 96 1016.8
20260901111526 21 213 0.0 0.0 0.00 0.00 0.00 96 1016.7
20260901110026 21 213 0.0 0.0 0.00 0.00 0.00 96 1016.6
20260901104523 21 213 0.0 0.0 0.00 0.00 0.00 96 1016.5
20260901103018 21 213 0.0 0.0 0.00 0.00 0.00 96 1016.6
20260901101519 21 213 0.0 0.0 0.00 0.00 0.00 96 1016.5
20260901100013 21 213 0.0 0.0 0.00 0.00 0.00 96 1016.4
20260901094512 21 213 0.0 0.0 0.00 0.00 0.00 96 1016.3
20260901093034 21 213 0.0 0.0 0.00 0.00 0.00 96 1016.3
20260901091529 21 213 0.0 0.0 0.00 0.00 0.00 96 1016.5
20260901090033 21 213 0.0 0.0 0.00 0.00 0.00 96 1016.6
20260901084532 22 213 0.0 0.0 0.00 0.00 0.00 96 1016.7
20260901083031 22 213 0.0 0.0 0.00 0.00 0.00 96 1016.7
20260901081523 22 213 0.0 0.0 0.00 0.00 0.00 95 1016.8
20260901080017 22 213 0.0 0.0 0.00 0.00 0.00 95 1016.6
20260901074533 22 213 0.0 0.0 0.00 0.00 0.00 95 1016.7
20260901073032 22 213 0.0 0.0 0.00 0.00 0.00 95 1016.7
20260901071530 22 213 0.0 0.0 0.00 0.00 0.00 95 1016.7
20260901070032 22 213 0.0 0.0 0.00 0.00 0.00 95 1016.8
20260901064531 22 213 0.0 0.0 0.00 0.00 0.00 95 1017.1
20260901063028 22 213 0.0 0.0 0.00 0.00 0.00 95 1017.2
20260901061527 22 213 0.0 0.0 0.00 0.00 0.00 95 1017.2
20260901060023 22 213 0.0 3.2 0.00 0.00 0.00 95 1017.3
20260901054536 22 213 0.0 0.0 0.00 0.00 0.00 94 1017.5
20260901053020 22 213 0.0 0.0 0.00 0.00 0.00 94 1017.7
20260901051510 22 213 0.0 0.0 0.00 0.00 0.00 94 1017.8
20260901050008 22 213 0.0 0.0 0.00 0.00 0.00 94 1018.0
20260901044508 22 213 0.0 0.0 0.00 0.00 0.00 94 1018.2
20260901043037 22 213 0.0 0.0 0.00 0.00 0.00 94 1018.2
20260901041529 22 213 0.0 0.0 0.00 0.03 0.00 94 1018.4
20260901040025 22 213 0.0 0.0 0.00 0.03 0.00 93 1018.5
20260901034520 22 213 0.0 0.0 0.00 0.03 0.03 93 1018.3
20260901033015 22 213 0.0 0.0 0.00 0.03 0.03 93 1018.2
20260901031516 22 213 0.0 0.0 0.00 0.05 0.03 93 1018.4
20260901030015 22 213 0.0 0.0 0.00 0.10 0.03 92 1018.5
20260901024506 22 213 0.0 0.0 0.00 0.10 0.03 92 1018.4
20260901023027 21 213 0.0 0.0 0.00 0.15 0.03 92 1018.5
20260901021534 21 213 0.0 0.0 0.00 0.18 0.03 92 1018.7
20260901020046 21 213 0.0 0.0 0.00 0.20 0.03 91 1018.7
20260901014526 21 213 0.0 0.0 0.00 0.20 0.03 90 1018.6
20260901013021 21 213 0.0 0.0 0.00 0.20 0.03 89 1018.6
20260901011514 22 213 0.0 0.0 0.00 0.20 0.03 88 1018.4
20260901010014 22 213 0.0 0.0 0.00 0.20 0.03 88 1018.3
20260901004537 22 213 0.0 0.0 0.00 0.20 0.03 87 1018.4
20260901003033 22 213 0.0 0.0 0.00 0.20 0.03 87 1018.2
20260901001528 22 213 0.0 0.0 0.00 0.20 0.03 86 1017.9
20260901000030 22 213 0.0 0.0 0.00 0.20 0.03 85 1017.8
20260831234526 22 213 0.0 0.0 0.00 0.20 0.03 84 1018.1
20260831233035 23 213 0.0 0.0 0.00 0.20 0.03 82 1018.2
20260831231520 23 213 0.0 0.0 0.00 0.20 0.03 83 1018.3
20260831230015 23 213 0.0 0.0 0.00 0.20 0.03 84 1018.5
20260831224535 23 213 0.0 0.0 0.00 0.20 0.03 82 1018.4
20260831223034 24 213 0.0 0.0 0.00 0.20 0.03 81 1018.4
20260831221532 25 213 0.0 0.0 0.00 0.20 0.03 78 1018.5
20260831220030 24 213 0.0 0.0 0.00 0.20 0.03 80 1018.8
20260831214527 24 213 0.0 0.0 0.00 0.20 0.03 80 1018.9
20260831213034 24 213 0.0 0.0 0.00 0.20 0.03 81 1018.8
20260831211525 24 213 0.0 0.0 0.00 0.20 0.03 78 1018.8
20260831210032 25 317 0.0 3.2 0.00 0.20 0.03 75 1019.0
20260831204533 26 316 0.0 3.2 0.00 0.20 0.03 72 1019.2
20260831203036 25 249 0.0 3.2 0.00 0.20 0.03 76 1019.2
20260831201539 25 233 0.0 0.0 0.00 0.20 0.03 77 1019.0
20260831200039 25 233 0.0 3.2 0.00 0.20 0.03 77 1019.1
20260831194505 25 269 0.0 3.2 0.00 0.20 0.03 77 1019.4
20260831193028 25 236 0.0 4.8 0.00 0.20 0.03 74 1019.5
20260831191530 25 225 0.0 3.2 0.00 0.20 0.03 76 1019.8
20260831190026 25 185 0.0 0.0 0.00 0.20 0.03 74 1019.9
20260831184525 25 185 0.0 3.2 0.00 0.20 0.03 71 1020.1
20260831183019 26 321 0.0 3.2 0.00 0.20 0.03 73 1020.0
20260831181519 25 169 0.0 1.6 0.00 0.20 0.03 78 1020.0
20260831180010 24 155 0.0 4.8 0.00 0.20 0.03 75 1020.1
20260831174530 25 231 0.0 3.2 0.00 0.20 0.03 73 1020.3
20260831173041 25 165 0.0 3.2 0.00 0.20 0.03 72 1020.3
20260831171528 25 165 0.0 3.2 0.00 0.20 0.03 71 1020.3
20260831170028 25 1 0.0 3.2 0.00 0.20 0.03 69 1020.3
20260831164524 25 21 0.0 3.2 0.00 0.20 0.03 71 1020.3
20260831163019 25 349 0.0 4.8 0.00 0.20 0.03 71 1020.4
20260831161518 23 335 0.0 3.2 0.00 0.20 0.03 73 1020.5
20260831160025 24 347 0.0 3.2 0.00 0.20 0.03 78 1020.4
20260831154556 23 347 0.0 0.0 0.00 0.20 0.03 75 1020.4